Location: *
(24.1434°N, 56.8729°E)
Time: 07:18:32
(UTC+00:00)

CENTAUR R/B - Pass Details

Date: 09 April 2020
Orbit: 761 x 1427 km, 63.5° (Epoch: 24 May)

Event Time Altitude Azimuth Distance (km) Brightness Sun altitude
Exits shadow 23:25:41 18° 341° (NNW) 2,128 4.3 -33.2°
Drops below altitude 10° 23:27:59 10° 359° (N) 2,732 5.1 -32.8°
Sets 23:31:21 0° 13° (NNE) 3,810 6.1 -32.1°
